Shelbyville, IN

9:00 PM EDT on September 24, 2017 (GMT -0400)
Shelbyville Municipal

Weather History for KGEZ - April, 2013

Change the Weather History Date:

Sunday, April 28, 2013

  Actual Average Record
Temperature  
Mean Temperature 60 °F 57 °F  
Max Temperature 64 °F 68 °F 78 °F (2003)
Min Temperature 55 °F 46 °F 35 °F (2004)
Degree Days  
Heating Degree Days 5 9  
Month to date heating degree days 342 361  
Since 1 July heating degree days 4991 5244  
Cooling Degree Days 0 0  
Month to date cooling degree days 15 0  
Year to date cooling degree days 15 1  
Growing Degree Days 9 (Base 50)    
Moisture  
Dew Point 54 °F    
Average Humidity 86    
Maximum Humidity 93    
Minimum Humidity 78    
Precipitation  
Precipitation 0.24 in 0.18 in 1.00 in (2014)
Month to date precipitation 3.27 3.92  
Year to date precipitation 9.73 12.10  
Sea Level Pressure  
Sea Level Pressure 29.86 in    
Wind  
Wind Speed 9 mph (South)    
Max Wind Speed 15 mph    
Max Gust Speed 18 mph    
Visibility 8 miles    
Events Rain    
T = Trace of Precipitation, MM = Missing Value Source: NWS Daily Summary

Daily Weather History Graph

Daily Weather History Graph

Search for Another Location

Airport or City:

Trip Planner

Search our weather history database for the weather conditions in past years. The results will help you decide how hot, cold, wet, or windy it might be!

Date:

Astronomy

Apr. 28, 2013 Rise Set
Actual Time 6:47 AM EDT 8:34 PM EDT
Civil Twilight 6:18 AM EDT 9:03 PM EDT
Nautical Twilight 5:43 AM EDT 9:38 PM EDT
Astronomical Twilight 5:06 AM EDT 10:16 PM EDT
Moon No Moon Rise 9:03 AM EDT (4/28)
Length of Visible Light 14h 44m
Length of Day
13h 46m
Waning Gibbous, 89% of the Moon is Illuminated
Apr 28
Waning Gibbous
May 2
Last Quarter
May 9
New
May 18
First Quarter
May 25
Full

Hourly Weather History & Observations

Time (EDT) Temp. Dew Point Humidity Pressure Visibility Wind Dir Wind Speed Gust Speed Precip Events Conditions
12:53 AM 55.9 °F 52.0 °F 87% 29.96 in 10.0 mi ESE 8.1 mph - 0.00 in   Overcast
1:53 AM 55.9 °F 52.0 °F 87% 29.94 in 10.0 mi SE 9.2 mph - 0.00 in Rain Light Rain
2:09 AM 55.4 °F 51.8 °F 88% 29.93 in 4.0 mi ESE 10.4 mph - 0.00 in Rain Light Rain
2:53 AM 55.0 °F 52.0 °F 89% 29.91 in 3.0 mi ESE 9.2 mph - 0.06 in Rain Heavy Rain
3:39 AM 55.4 °F 53.6 °F 94% 29.90 in 10.0 mi SE 8.1 mph - 0.01 in   Overcast
3:53 AM 55.9 °F 53.1 °F 90% 29.89 in 10.0 mi SE 8.1 mph - 0.01 in   Overcast
4:03 AM 55.4 °F 53.6 °F 94% 29.89 in 10.0 mi SE 9.2 mph - N/A   Overcast
4:30 AM 55.4 °F 53.6 °F 94% 29.88 in 10.0 mi ESE 9.2 mph - N/A   Overcast
4:53 AM 55.9 °F 53.1 °F 90% 29.87 in 10.0 mi SE 8.1 mph - N/A   Overcast
5:19 AM 55.4 °F 53.6 °F 94% 29.88 in 10.0 mi ESE 9.2 mph - N/A   Overcast
5:25 AM 55.4 °F 53.6 °F 94% 29.88 in 10.0 mi SSE 9.2 mph - N/A   Overcast
5:53 AM 55.9 °F 53.1 °F 90% 29.88 in 10.0 mi SE 8.1 mph - N/A   Overcast
6:21 AM 55.4 °F 53.6 °F 94% 29.87 in 10.0 mi SE 8.1 mph - N/A   Overcast
6:51 AM 55.4 °F 53.6 °F 94% 29.86 in 10.0 mi SSE 9.2 mph - N/A   Overcast
6:53 AM 55.9 °F 53.1 °F 90% 29.86 in 10.0 mi SSE 8.1 mph - N/A   Overcast
7:28 AM 57.2 °F 53.6 °F 88% 29.86 in 10.0 mi SSE 8.1 mph - N/A   Overcast
7:53 AM 57.0 °F 54.0 °F 89% 29.85 in 10.0 mi SE 10.4 mph - N/A   Overcast
8:09 AM 57.2 °F 53.6 °F 88% 29.86 in 2.5 mi SSE 11.5 mph - 0.03 in Rain Heavy Rain
8:17 AM 57.2 °F 53.6 °F 88% 29.87 in 1.5 mi SSE 9.2 mph - 0.10 in Rain Rain
8:22 AM 57.2 °F 53.6 °F 88% 29.87 in 3.0 mi South 9.2 mph - 0.10 in Rain Light Rain
8:35 AM 57.2 °F 53.6 °F 88% 29.87 in 4.0 mi SSE 4.6 mph - 0.10 in Rain Light Rain
8:42 AM 55.4 °F 53.6 °F 94% 29.87 in 1.8 mi SE 5.8 mph - 0.10 in Rain Light Rain
9:14 AM 57.2 °F 55.4 °F 94% 29.86 in 2.5 mi SE 6.9 mph - 0.01 in   Overcast
9:27 AM 57.2 °F 53.6 °F 88% 29.86 in 1.8 mi SE 8.1 mph - 0.02 in Rain Light Rain
9:33 AM 57.2 °F 53.6 °F 88% 29.86 in 2.0 mi SSE 8.1 mph - 0.02 in Rain Light Rain
9:43 AM 57.2 °F 53.6 °F 88% 29.86 in 3.0 mi SE 8.1 mph - 0.02 in   Overcast
9:53 AM 57.0 °F 55.0 °F 93% 29.86 in 2.0 mi SSE 8.1 mph - 0.02 in Rain Light Rain
10:12 AM 57.2 °F 55.4 °F 94% 29.86 in 4.0 mi SSE 10.4 mph - 0.00 in Rain Light Rain
10:43 AM 57.2 °F 55.4 °F 94% 29.85 in 1.8 mi SSE 11.5 mph - 0.00 in Rain Light Rain
10:53 AM 57.9 °F 55.0 °F 90% 29.86 in 2.5 mi SSE 12.7 mph - 0.00 in Rain Light Rain
11:36 AM 57.2 °F 55.4 °F 94% 29.86 in 8.0 mi South 10.4 mph - 0.01 in   Overcast
11:53 AM 57.9 °F 55.9 °F 93% 29.86 in 2.5 mi South 9.2 mph - 0.02 in Rain Light Rain
12:02 PM 57.2 °F 55.4 °F 94% 29.86 in 3.0 mi South 11.5 mph - 0.00 in Rain Light Rain
12:53 PM 61.0 °F 57.0 °F 87% 29.84 in 10.0 mi SSW 9.2 mph - 0.00 in   Overcast
1:08 PM 60.8 °F 57.2 °F 88% 29.84 in 10.0 mi South 9.2 mph - N/A   Overcast
1:31 PM 62.6 °F 57.2 °F 82% 29.84 in 10.0 mi SSW 9.2 mph - N/A   Overcast
1:53 PM 63.0 °F 57.0 °F 81% 29.83 in 10.0 mi SW 8.1 mph - N/A   Overcast
2:01 PM 62.6 °F 57.2 °F 82% 29.83 in 10.0 mi SSW 9.2 mph - N/A   Overcast
2:08 PM 62.6 °F 57.2 °F 82% 29.83 in 10.0 mi SW 9.2 mph - N/A   Overcast
2:53 PM 62.1 °F 55.9 °F 80% 29.83 in 10.0 mi West 10.4 mph - 0.00 in Rain Light Rain
3:15 PM 60.8 °F 55.4 °F 82% 29.83 in 10.0 mi West 12.7 mph - 0.00 in   Overcast
3:53 PM 63.0 °F 55.9 °F 78% 29.83 in 10.0 mi WSW 11.5 mph - 0.00 in   Overcast
4:53 PM 62.1 °F 55.9 °F 80% 29.82 in 10.0 mi West 6.9 mph - N/A   Overcast
5:00 PM 62.6 °F 55.4 °F 77% 29.82 in 10.0 mi West 5.8 mph - N/A   Overcast
5:08 PM 62.6 °F 55.4 °F 77% 29.82 in 10.0 mi WSW 5.8 mph - N/A   Overcast
5:45 PM 62.6 °F 53.6 °F 72% 29.82 in 10.0 mi West 10.4 mph - N/A   Overcast
5:53 PM 62.1 °F 55.0 °F 78% 29.82 in 10.0 mi West 13.8 mph - N/A   Overcast
6:11 PM 62.6 °F 53.6 °F 72% 29.83 in 10.0 mi WSW 12.7 mph - N/A   Overcast
6:53 PM 61.0 °F 55.0 °F 81% 29.83 in 10.0 mi West 8.1 mph - N/A   Overcast
7:39 PM 60.8 °F 53.6 °F 77% 29.84 in 10.0 mi WSW 9.2 mph - N/A   Overcast
7:53 PM 60.1 °F 54.0 °F 80% 29.83 in 10.0 mi West 11.5 mph - N/A   Overcast
8:53 PM 59.0 °F 54.0 °F 83% 29.85 in 10.0 mi WSW 6.9 mph - N/A   Overcast
9:36 PM 57.2 °F 53.6 °F 88% 29.86 in 10.0 mi SW 6.9 mph - N/A   Overcast
9:53 PM 57.9 °F 54.0 °F 87% 29.87 in 10.0 mi SW 5.8 mph - N/A   Overcast
10:53 PM 57.9 °F 55.0 °F 90% 29.89 in 10.0 mi SW 6.9 mph - N/A   Overcast
11:03 PM 57.2 °F 55.4 °F 94% 29.89 in 10.0 mi SW 6.9 mph - N/A   Overcast
11:53 PM 57.0 °F 55.0 °F 93% 29.88 in 10.0 mi WSW 5.8 mph - N/A   Overcast